[[{"header":{"parameterUnit":"m.s-1","parameterCategory":1,"la1":30.2991,"la2":30.254,"lo1":-89.0895,"lo2":-89.0444,"dy":0.0017,"dx":0.0017,"nx":28,"ny":28,"refTime":"2025-11-26T09:00:00:Z","depth":0,"parameterNumber":2,"parameterNumberName":"U-component_of_WINDS"},"data":[0,0,0,0,0,0,0,0,0,0,0,0,0,0,0,0,0,0,0,0,0,0,0,0,0,0,0,0,0,0,0,0,0,0,0,0,0,0,0,0,0,0,0,0,0,0,0,0,0,0,0,0,0,0,0,0,0,0,1.6729,1.6729,0,1.6756,1.6757,1.6757,1.6715,1.6714,1.6712,1.6711,1.6742,1.6744,1.6746,0,0,0,0,0,0,0,0,0,0,0,0,0,1.6644,1.6646,1.6729,1.6729,1.673,1.6756,1.6757,1.6757,1.6716,1.6714,1.6712,1.671,1.6741,1.6744,1.6746,0,0,0,0,0,0,0,0,0,0,0,0,0,1.6677,1.6647,1.6729,1.6712,1.6711,1.6756,1.6757,1.6757,1.6716,1.6714,1.6712,1.671,1.674,1.6743,1.6746,1.681,0,0,1.6756,1.6758,0,0,0,0,0,0,0,0,1.6675,1.668,1.6714,1.6713,1.6712,1.673,1.6738,1.6775,1.6716,1.6714,1.6711,1.6708,1.674,1.6743,1.6753,1.6812,1.6813,1.6757,1.6759,1.676,1.6761,0,0,0,0,0,0,0,1.6673,1.6679,1.674,1.6715,1.6714,1.6704,1.6707,1.6745,1.6739,1.6714,1.6711,1.6715,1.6739,1.675,1.6753,1.6813,1.6757,1.676,1.6762,1.6763,1.6927,1.6929,0,0,0,0,0,0,1.6673,1.6677,1.6739,1.6741,1.6688,1.6708,1.671,1.6727,1.6738,1.6738,1.6717,1.6713,1.6745,1.675,1.6754,1.683,1.676,1.6763,1.6765,1.6925,1.6928,1.693,0,0,0,0,0,0,1.6671,1.6678,1.6738,1.6708,1.6715,1.6711,1.673,1.6728,1.6739,1.674,1.6739,1.6729,1.6744,1.675,1.6797,1.6831,1.6765,1.6768,1.6922,1.6926,1.6929,1.6983,0,0,0,0,0,0,1.6669,1.6678,1.6702,1.6709,1.6717,1.6779,1.6732,1.673,1.6745,1.674,1.6751,1.6751,1.6743,1.6792,1.68,1.6834,1.677,1.6919,1.6923,1.6928,1.6978,1.6988,1.6996,0,0,0,0,0,1.6666,1.6716,1.6703,1.6711,1.6746,1.6781,1.6786,1.6774,1.6748,1.6772,1.6772,1.6751,1.6826,1.6797,1.6806,1.6841,1.6917,1.6922,1.6927,1.6974,1.6986,1.6996,0,0,0,0,0,0,1.6713,1.6717,1.6702,1.6756,1.6769,1.6774,1.6804,1.6787,1.6808,1.6802,1.6787,1.6791,1.6841,1.6846,1.6814,1.6904,1.6867,1.6874,1.6899,1.6911,1.692,1.6918,1.6773,0,0,0,0,0,1.673,1.6758,1.6759,1.6807,1.6814,1.6808,1.6823,1.6813,1.6825,1.6831,1.6835,1.6849,1.6875,1.6893,1.6918,1.6978,1.6981,1.7007,1.7016,1.7024,1.7031,1.7064,1.7076,1.6948,1.6948,1.6948,0,0,1.6765,1.677,1.6789,1.6817,1.6825,1.6855,1.6813,1.6846,1.6868,1.6836,1.688,1.6884,1.6899,1.6953,1.6977,1.6959,1.7066,1.7031,1.7037,1.7039,1.7071,1.7083,1.7094,1.6952,1.6951,1.695,0,0,1.6844,1.685,1.6891,1.69,1.6913,1.6909,1.6919,1.6927,1.6928,1.6973,1.6949,1.6976,1.7022,1.7033,1.7045,1.713,1.7111,1.7138,1.7186,1.7219,1.7229,1.7238,1.7269,1.728,1.7145,1.7145,1.7145,0,1.6886,1.6929,1.6914,1.6949,1.6963,1.6934,1.6976,1.6986,1.7007,1.7017,1.6996,1.7053,1.7061,1.7118,1.7139,1.7149,1.7161,1.7137,1.7228,1.7237,1.7245,1.7275,1.7286,1.7148,1.7148,1.7147,1.7147,0,1.6981,1.7011,1.7043,1.7063,1.708,1.7118,1.711,1.7129,1.7118,1.7116,1.7162,1.7171,1.7197,1.7209,1.7198,1.7265,1.7253,1.7231,1.7193,1.7261,1.7288,1.7299,1.7153,1.7152,1.7151,1.715,0,0,1.7091,1.7102,1.7114,1.7123,1.7136,1.716,1.7197,1.7222,1.7239,1.7254,1.7286,1.7326,1.7305,1.7318,1.7309,1.7337,1.7405,1.7311,1.7311,1.7329,1.748,1.7497,1.7511,1.7392,1.7394,1.7396,1.7479,0,1.717,1.7234,1.7222,1.7284,1.7313,1.7286,1.7319,1.7331,1.7331,1.7356,1.7355,1.7384,1.7354,1.7362,1.7389,1.7391,1.7435,1.7384,1.7423,1.7424,1.742,1.7525,1.7543,1.7621,1.7489,1.7491,1.7492,0,1.7271,1.729,1.7355,1.7364,1.7375,1.7405,1.7427,1.745,1.7464,1.7462,1.7477,1.7462,1.7501,1.7462,1.7515,1.7481,1.7496,1.75,1.7502,1.7506,1.7463,1.7532,1.7646,1.7658,1.7509,1.7508,1.7506,0,1.7346,1.7387,1.7432,1.744,1.7451,1.7473,1.7479,1.749,1.7506,1.7525,1.7536,1.756,1.7573,1.7593,1.7585,1.7558,1.7641,1.7601,1.7641,1.7641,1.766,1.7659,1.7779,1.7669,1.7669,1.7668,1.7668,0,1.7436,1.7477,1.7465,1.7493,1.7539,1.7525,1.7571,1.7574,1.7584,1.7612,1.7591,1.7618,1.7606,1.7633,1.7628,1.7673,1.768,1.768,1.7678,1.7682,1.7682,1.7692,1.7687,1.7671,1.7671,1.767,1.767,0,1.7527,1.7521,1.7568,1.7574,1.7577,1.761,1.7616,1.7643,1.7641,1.7677,1.7685,1.7683,1.7713,1.7707,1.7741,1.7738,1.7795,1.7786,1.779,1.7788,1.7829,1.7825,1.7959,1.7977,1.7855,1.7856,1.7857,0,1.7585,1.7616,1.7626,1.7643,1.765,1.7678,1.7694,1.7682,1.77,1.7718,1.7742,1.7771,1.7793,1.7843,1.7845,1.7871,1.7863,1.7909,1.7867,1.7871,1.7865,1.7863,1.7867,1.7917,1.7918,1.7919,1.792,0,1.769,1.7685,1.7708,1.7731,1.7751,1.7768,1.7784,1.7799,1.7789,1.781,1.7841,1.7858,1.7892,1.7921,1.7946,1.7953,1.7936,1.7933,1.7944,1.7949,1.795,1.7951,1.7813,1.793,1.7929,1.7929,1.7928,1.7928,1.7766,1.7793,1.7804,1.7831,1.7842,1.7857,1.7882,1.7883,1.7908,1.7935,1.7926,1.7962,1.7975,1.8006,1.8016,1.8044,1.8027,1.8042,1.8046,1.8051,1.8056,1.7945,1.8048,1.8048,1.8048,1.8047,1.8047,0,1.787,1.7876,1.7901,1.7923,1.7945,1.7926,1.7942,1.7962,1.7993,1.8006,1.8029,1.8064,1.8092,1.8097,1.8124,1.8145,1.8138,1.8153,1.8151,1.8154,1.8069,1.8057,1.8158,1.8158,1.8158,1.8158,1.8158,1.8158,1.7927,1.7971,1.7968,1.8017,1.8023,1.8057,1.8068,1.8082,1.8093,1.8134,1.8157,1.8159,1.8169,1.8197,1.8222,1.8223,1.8234,1.8252,1.825,1.817,1.8159,1.8149,1.8138,1.8254,1.8254,1.8332,1.8333,1.8333]},{"header":{"parameterUnit":"m.s-1","parameterCategory":1,"la1":30.2991,"la2":30.254,"lo1":-89.0895,"lo2":-89.0444,"dy":0.0017,"dx":0.0017,"nx":28,"ny":28,"refTime":"2025-11-26T09:00:00:Z","depth":0,"parameterNumber":3,"parameterNumberName":"V-component_of_WINDS"},"data":[0,0,0,0,0,0,0,0,0,0,0,0,0,0,0,0,0,0,0,0,0,0,0,0,0,0,0,0,0,0,0,0,0,0,0,0,0,0,0,0,0,0,0,0,0,0,0,0,0,0,0,0,0,0,0,0,0,0,1.1193,1.1195,0,1.1366,1.1368,1.137,1.1415,1.1414,1.1413,1.1412,1.1589,1.1595,1.16,0,0,0,0,0,0,0,0,0,0,0,0,0,1.0901,1.0906,1.1193,1.1195,1.1197,1.1366,1.1369,1.1371,1.1415,1.1414,1.1412,1.1411,1.1587,1.1594,1.1601,0,0,0,0,0,0,0,0,0,0,0,0,0,1.1046,1.0908,1.1193,1.124,1.1246,1.1366,1.1369,1.1372,1.1415,1.1414,1.1412,1.141,1.1585,1.1593,1.1602,1.1687,0,0,1.1628,1.1632,0,0,0,0,0,0,0,0,1.1038,1.1057,1.1231,1.1237,1.1244,1.1367,1.1331,1.1477,1.1416,1.1351,1.1412,1.141,1.1517,1.1531,1.1567,1.1696,1.1703,1.1629,1.1634,1.1638,1.164,0,0,0,0,0,0,0,1.1028,1.105,1.1262,1.1233,1.1241,1.1252,1.1271,1.1359,1.1441,1.1356,1.136,1.138,1.152,1.1558,1.1571,1.1706,1.1629,1.1636,1.1642,1.1645,1.1915,1.1917,0,0,0,0,0,0,1.101,1.1041,1.1256,1.1267,1.1135,1.1259,1.128,1.1329,1.144,1.1455,1.1381,1.1381,1.1545,1.1561,1.1578,1.1686,1.1638,1.1646,1.1651,1.1913,1.1915,1.1917,0,0,0,0,0,0,1.1003,1.1028,1.1249,1.1155,1.1184,1.1266,1.1321,1.1334,1.1372,1.1459,1.1473,1.1405,1.1544,1.1566,1.166,1.1693,1.165,1.1657,1.191,1.1914,1.1916,1.1903,0,0,0,0,0,0,1.0995,1.1026,1.1059,1.1155,1.1189,1.1328,1.1323,1.1338,1.1387,1.1389,1.1485,1.15,1.1544,1.1647,1.1669,1.1704,1.1664,1.1908,1.1912,1.1915,1.1901,1.1905,1.1909,0,0,0,0,0,1.0984,1.1048,1.106,1.1086,1.1232,1.133,1.1349,1.1399,1.1389,1.1424,1.1479,1.1497,1.1685,1.1656,1.1681,1.1719,1.1906,1.1911,1.1915,1.1899,1.1904,1.1909,0,0,0,0,0,0,1.0953,1.1061,1.1076,1.1174,1.1242,1.1337,1.1382,1.1403,1.1476,1.1475,1.1533,1.1555,1.1646,1.1692,1.1657,1.1809,1.1796,1.1806,1.1775,1.1781,1.1785,1.1772,1.1671,0,0,0,0,0,1.0957,1.1028,1.1119,1.1196,1.123,1.13,1.1344,1.1377,1.1451,1.148,1.1542,1.1613,1.1689,1.1737,1.1811,1.1907,1.193,1.1946,1.195,1.1953,1.1961,1.2016,1.2025,1.1932,1.1932,1.1932,0,0,1.0967,1.1035,1.1076,1.1192,1.1249,1.1321,1.1324,1.14,1.1454,1.1491,1.1585,1.1633,1.1716,1.1812,1.1857,1.1853,1.1991,1.1959,1.196,1.1967,1.2022,1.203,1.2038,1.1935,1.1935,1.1934,0,0,1.1023,1.1081,1.1152,1.1209,1.1296,1.1342,1.1359,1.1452,1.1485,1.158,1.1609,1.1675,1.1803,1.1861,1.1908,1.1985,1.2005,1.2008,1.2029,1.2082,1.209,1.2096,1.2125,1.2135,1.2015,1.2015,1.2015,0,1.1024,1.1134,1.1186,1.1261,1.1311,1.1348,1.1421,1.1474,1.158,1.1614,1.1608,1.177,1.1829,1.1939,1.1958,1.1994,1.2016,1.1998,1.2084,1.2092,1.2099,1.2127,1.2137,1.2015,1.2015,1.2015,1.2015,0,1.1132,1.1208,1.1255,1.1357,1.1412,1.1486,1.1549,1.1598,1.1626,1.1673,1.1769,1.1841,1.193,1.1959,1.1986,1.2074,1.2069,1.2072,1.2061,1.2107,1.2134,1.2145,1.2015,1.2015,1.2015,1.2015,0,0,1.1173,1.1303,1.132,1.1367,1.1465,1.1525,1.16,1.1688,1.173,1.1802,1.1867,1.1975,1.198,1.2032,1.2067,1.2113,1.2172,1.2112,1.2115,1.2121,1.2273,1.227,1.2282,1.2184,1.2187,1.2189,1.2267,0,1.1241,1.1377,1.1426,1.1538,1.1609,1.1646,1.1711,1.1779,1.1825,1.1892,1.1943,1.2019,1.2019,1.2051,1.2098,1.2154,1.2203,1.2149,1.2246,1.2249,1.2225,1.2296,1.2293,1.2364,1.2278,1.2279,1.2281,0,1.1339,1.1413,1.1532,1.1623,1.1654,1.1712,1.1797,1.1861,1.1938,1.1969,1.2028,1.2059,1.214,1.2123,1.2235,1.2197,1.224,1.2273,1.2277,1.2289,1.2268,1.2311,1.2387,1.2398,1.2298,1.2297,1.2295,0,1.1358,1.1487,1.1575,1.1615,1.1722,1.1762,1.1809,1.1885,1.1935,1.2009,1.2042,1.2124,1.217,1.2233,1.2286,1.2269,1.2394,1.2381,1.2422,1.2421,1.2447,1.2445,1.2532,1.2473,1.2473,1.2472,1.2472,0,1.143,1.1501,1.1586,1.164,1.1722,1.1777,1.1857,1.1905,1.1973,1.2038,1.2074,1.2134,1.22,1.2268,1.231,1.2398,1.2417,1.2445,1.2455,1.2442,1.2439,1.2471,1.2468,1.2475,1.2475,1.2474,1.2474,0,1.1465,1.1524,1.1623,1.1717,1.1742,1.1798,1.1879,1.1933,1.1981,1.2062,1.2085,1.216,1.2242,1.2301,1.2408,1.2436,1.253,1.254,1.2504,1.2509,1.2547,1.2543,1.266,1.2678,1.2605,1.2605,1.2606,0,1.1507,1.1563,1.1663,1.171,1.1756,1.183,1.1882,1.1939,1.1991,1.2084,1.2127,1.2212,1.2284,1.2414,1.2478,1.256,1.2573,1.2608,1.2585,1.2571,1.2575,1.2571,1.2578,1.2611,1.2612,1.2612,1.2613,0,1.1576,1.1603,1.1676,1.1759,1.182,1.1888,1.1957,1.1992,1.2062,1.2118,1.2204,1.2259,1.2368,1.2453,1.2541,1.2589,1.2613,1.2619,1.2633,1.2621,1.2599,1.2613,1.2514,1.2617,1.2616,1.2616,1.2616,1.2616,1.1617,1.1669,1.1748,1.1828,1.1886,1.195,1.2006,1.2061,1.2133,1.2227,1.2256,1.2344,1.2421,1.2543,1.2592,1.2662,1.2661,1.2681,1.2686,1.269,1.269,1.2586,1.2678,1.2678,1.2678,1.2678,1.2678,0,1.1689,1.1742,1.1815,1.191,1.1974,1.199,1.2068,1.2119,1.2197,1.2267,1.2337,1.2435,1.2518,1.2588,1.2674,1.2716,1.273,1.2737,1.2735,1.2746,1.2686,1.2666,1.2725,1.2725,1.2725,1.2725,1.2725,1.2725,1.1734,1.1823,1.1859,1.1978,1.203,1.2118,1.2161,1.222,1.2276,1.2385,1.2453,1.2499,1.257,1.266,1.2737,1.2756,1.2786,1.2791,1.2812,1.2756,1.275,1.2745,1.2726,1.2797,1.2797,1.2866,1.2867,1.2868]}]]